Location: ??????
(55.2000°N, 38.3000°E)
Time: 17:33:05
(UTC+00:00)

Cosmos 371 Rocket - Pass Details

Date: 15 November 2025
Orbit: 674 x 690 km, 74.0° (Epoch: 14 December)

Event Time Altitude Azimuth Distance (km) Brightness Sun altitude
Exits shadow 02:33:14 48° 270° (W) 907 3.4 -20.5°
Maximum altitude 02:33:41 50° 251° (WSW) 887 3.4 -20.5°
Drops below altitude 10° 02:38:20 10° 177° (S) 2,140 5.9 -19.8°
Sets 02:40:41 0° 172° (S) 3,051 6.8 -19.5°
